Tracking 35275 objects as of 9-Sep-2026
HD Live streaming from Space Station
objects crossing your sky now

PEGASUS DEB


PEGASUS DEB is no longer on orbit


NORAD ID: 24259
Int'l Code: 1994-029MJ
Launch date: May 19, 1994
Source: United States (US)
Launch site: AIR FORCE WESTERN TEST RANGE (AFWTR)
Decay date: 2001-12-05

Note: This is SATELLITE DEBRIS
Your satellite tracking list
Your tracking list is empty




NASA's NSSDC Master Catalog

Two Line Element Set (TLE):
1 24259U 94029MJ  01339.33077209  .18809174  00000-0  11398-1 0  9994
2 24259 081.6863 098.0103 0016339 231.1398 129.1145 16.17933151286967
Source of the keplerian elements: AFSPC